www.pogodaiklimat.ru

Погода и климат >> Архив погоды >> Россия >> Якутия >> Верхневилюйск


ПОГОДА в Верхневилюйске

  • Прогноз погоды в Верхневилюйске
  • Монитор погоды в Верхневилюйске

АРХИВ ПОГОДЫ в Верхневилюйске

Время (UTC), дата Ветер
(напр.,м/с)
 
Видим.   Явления Облачность Т
(С)
Тd
(С)
f
(%)
Тe
(С)
Тes
(С)
Комфортность P
(гПа)
Po
(гПа)
Тmin
(С)
Tmax
(С)
R
(мм)
R24
(мм)
S
(см)
18 12.06 СЗ 3 50 км 6/0
[Ac trans]
+6.4 +2.0 73 +3 +3 1010.6 996.5
21 12.06 СЗ 3 50 км 1/0
[Ci fib]
+6.1 +1.6 73 +3 +4 1012.8 998.6
00 13.06 СЗ 4 50 км 1/1 600 м
[St]
+7.9 +0.6 60 +5 +9 1014.0 999.9 +4.3
03 13.06 СЗ 4 50 км 3/3 600 м
[St]
+10.5 -0.2 47 +8 +14 1014.1 1000.1
06 13.06 СЗ 3 50 км 3/3 600 м
[Cu hum]
+12.7 +0.2 42 +12 +18 1014.1 1000.2
09 13.06 С 3 50 км 1/1 1000 м
[Cu hum]
+14.2 -1.2 35 +14 +17 1013.8 1000.0
12 13.06 В 2 50 км ясно +14.1 +1.1 41 +14 +14 1014.6 1000.8 +14.9
15 13.06 В 1 50 км ясно +9.4 +4.1 69 +9 +9 1015.3 1001.3
18 13.06 штиль 0 50 км ясно +3.6 +2.1 90 +2 +2 1016.2 1001.9
21 13.06 В 2 50 км ясно +7.4 +4.0 79 +5 +7 1016.3 1002.2
00 14.06 В 2 50 км ясно +13.4 +5.3 58 +13 +20 1016.3 1002.5 +3.0
03 14.06 В 3 50 км ясно +16.3 +2.7 40 +16 +27 1014.9 1001.2
06 14.06 В 2 50 км ясно +19.2 +0.2 28 +20 +31 1012.8 999.2
09 14.06 ЮВ 3 50 км ясно +20.6 +0.6 26 +21 +25 комфорт 1011.1 997.6
12 14.06 ЮВ 1 50 км ясно +20.5 +2.9 31 +22 +23 комфорт 1010.1 996.7 +21.2
15 14.06 В 1 50 км ясно +13.6 +8.0 69 +14 +14 1010.1 996.4
18 14.06 ЮВ 2 50 км ясно +11.5 +5.0 64 +11 +11 1009.8 996.0
21 14.06 Ю 2 50 км ясно +11.9 +5.1 63 +11 +12 1009.9 996.1
00 15.06 ЮВ 2 50 км ясно +18.6 +6.8 46 +19 +26 1009.4 995.9 +10.4
03 15.06 В 4 50 км ясно +23.4 +4.5 29 +23 +32 комфорт 1007.9 994.7
06 15.06 ЮВ 3 50 км ясно +25.0 +4.1 26 +24 +34 комфорт 1006.8 993.6
09 15.06 В 3 50 км ясно +25.6 +3.6 24 +25 +29 комфорт 1006.0 992.8
12 15.06 В 2 50 км ясно +23.9 +5.6 31 +24 +24 комфорт 1006.0 992.8 +26.2
15 15.06 В 1 50 км 3/0
[Ci fib]
+17.7 +7.8 52 +19 +19 1007.0 993.5
18 15.06 ЮВ 1 50 км 3/0
[Ci fib]
+11.5 +7.4 76 +11 +11 1007.5 993.7
21 15.06 штиль 0 50 км 3/0
[Ci fib]
+14.1 +9.4 73 +14 +16 1008.1 994.4
00 16.06 В 1 50 км 8/0
[Ci]
+20.5 +8.5 46 +23 +30 комфорт 1008.3 994.9 +10.6
03 16.06 В 2 50 км 8/0
[Ci fib]
+25.4 +7.0 31 +25 +36 комфорт 1008.0 994.8
06 16.06 В 1 50 км 8/0
[Ci fib]
+27.5 +5.6 25 +27 +38 жарко 1007.7 994.6
09 16.06 СВ 2 50 км 8/0
[Ci fib]
+28.2 +5.0 23 +27 +31 жарко 1007.6 994.5
12 16.06 В 1 50 км 1/0
[Ci fib]
+26.1 +4.0 24 +25 +26 комфорт 1008.6 995.4 +29.2
15 16.06 штиль 0 50 км 1/0
[Ci fib]
+16.2 +9.7 65 +16 +16 1010.4 996.8
18 16.06 штиль 0 50 км 1/0
[Ci fib]
+10.4 +8.8 90 +10 +10 1011.9 997.9
21 16.06 штиль 0 50 км ясно +14.8 +10.3 74 +15 +16 1012.0 998.3
00 17.06 СВ 1 50 км ясно +23.6 +9.9 42 +25 +33 комфорт 1012.3 999.0 +9.6
03 17.06 ЮВ 2 50 км ясно +27.7 +6.2 26 +27 +40 жарко 1011.4 998.3
06 17.06 СВ 3 50 км ясно +29.3 +4.1 20 +27 +37 жарко 1010.4 997.4
09 17.06 В 3 50 км ясно +29.1 +4.8 21 +27 +31 жарко 1009.6 996.6
12 17.06 В 1 50 км ясно +27.5 +7.7 29 +27 +28 жарко 1009.3 996.2 +29.6
15 17.06 штиль 0 50 км ясно +17.6 +11.2 66 +18 +18 1009.8 996.3
18 17.06 штиль 0 50 км ясно +12.1 +11.0 93 +11 +11 1010.8 997.0
21 17.06 В 1 50 км ясно +16.5 +12.7 78 +17 +19 1010.5 997.0
00 18.06 СВ 1 50 км ясно +23.7 +12.8 50 +26 +34 жарко 1009.5 996.3 +11.4
03 18.06 В 2 50 км ясно +28.3 +8.1 28 +28 +40 жарко 1008.4 995.3
06 18.06 В 2 50 км ясно +29.5 +8.0 26 +29 +40 жарко 1006.8 993.8
09 18.06 В 2 50 км ясно +30.5 +6.1 22 +29 +34 жарко 1005.3 992.4
12 18.06 В 1 50 км ясно +28.8 +8.6 28 +28 +29 жарко 1005.0 992.1 +30.7
15 18.06 штиль 0 50 км 3/0
[Ci fib]
+18.1 +12.0 68 +18 +18 1005.8 992.4
18 18.06 штиль 0 50 км ясно +13.6 +12.1 91 +13 +13 1006.4 992.7
21 18.06 СЗ 1 50 км 1/0
[Ci fib]
+15.8 +12.5 81 +16 +18 1006.5 992.9
00 19.06 З 4 50 км 1/0
[Ci fib]
+21.8 +13.9 61 +25 +29 комфорт 1006.9 993.6 +13.3
03 19.06 СЗ 4 50 км 6/0
[Ci]
+26.1 +16.0 54 +29 +37 жарко 1007.2 994.1
06 19.06 З 5 50 км 8/0
[Ac trans Ci]
+26.4 +16.5 55 +30 +34 душно 1006.9 993.8
09 19.06 З 5
{10}
50 км 8/1 1000 м
[Cu med, cong Ac trans Ci fib]
+25.5 +16.8 59 +29 +31 душно 1007.2 994.0
12 19.06 СЗ 3
{10}
50 км 8/0
[Ac cast Ci]
+23.4 +15.2 60 +28 +28 душно 1008.4 995.2 +28.4
15 19.06 СЗ 2 50 км гроза без осадков 8/1 600 м
[Cb calv Ac cast Ci]
+19.8 +15.2 75 +23 +23 комфорт 1009.4 996.0

 

Местоположение метеостанции Верхневилюйск (Якутия, Россия): широта 63.45 долгота 120.20 высота над уровнем моря 115 м.

В архиве по умолчанию представлена погода в Верхневилюйске за последнюю неделю. Архивные данные за месяц целиком и за предыдущие месяцы, начиная с января 2011 года, Вы можете получить, выбрав интересующий диапазон дат из раскрывающегося списка и нажав кнопку "Ввод!".


*Определитесь, кто Вы:
робот инопланетянин человек

Внимание! Время в таблицах - всемирное. Для получения местного времени необходимо прибавить поправку, которая равна 9 ч.

Смотрите также архив погоды в соседних городах и на ближайших метеорологических станциях:

Погода в Вилюйске (Якутия, Россия) (78 км)
Погода в Нюрбе (Якутия, Россия) (97 км)
Погода в Чумпуруке (Якутия, Россия) (184 км)
Погода в Сунтаре (Якутия, Россия) (194 км)
Погода в Хатырык-Хомо (Якутия, Россия) (233 км)
Погода в Крестяхе (Якутия, Россия) (246 км)
Погода в Тонгулахе (Якутия, Россия) (278 км)
Погода в Бестяхской Звероферме (Якутия, Россия) (278 км)
Погода в Килиере (Якутия, Россия) (282 км)
Погода в Эйке (Якутия, Россия) (316 км)

Пояснения к столбцам:

Ветер - указаны скорость ветра в м/с - средняя за 10 мин, порывы в срок и между сроками (в фигурных скобках) и направление, откуда дует ветер: С - северный, СВ - северо-восточный, В - восточный, ЮВ - юго-восточный, Ю - южный, ЮЗ - юго-западный, З - западный, СЗ - северо-западный.
Видимость - горизонтальная дальность видимости в метрах или километрах. При видимости от 1 до 10 км при отсутствии осадков обычно наблюдается дымка, при ухудшении видимости до 1 км и менее - туман. В сухую погоду видимость может ухудшаться дымом, пылью или мглою.
Явления - указаны атмосферные явления, наблюдавшиеся в срок или в последний час перед сроком; фигурными скобками обозначены явления, наблюдавшиеся между сроками (за 1-3 часа до срока); квадратными скобками обозначены град или гололедные отложения с указанием их диаметра в мм.
Облачность - указаны через наклонную черту общая и нижняя облачность в баллах и высота нижней границы облаков в метрах; квадратными скобками обозначены формы облаков: Ci - перистые, Cs - перисто-слоистые, Cc - перисто-кучевые, Ac - высококучевые, As - высокослоистые, Sc - слоисто-кучевые, Ns - слоисто-дождевые, Cu - кучевые, Cb - кучево-дождевые. Подробнее классификацию облаков см. в Атласе облаков (PDF).
T - Температура воздуха - температура, измеренная на высоте 2 м над землей.
Td - Температура точки росы - температура, при понижении до которой содержащийся в воздухе водяной пар достигнет насыщения.
f - Относительная влажность воздуха - влажноcть воздуха, измеренная на высоте 2 м над землей.
Te - Эффективная температура - температура, которую ощущает одетый по сезону человек в тени. Характеристика душности погоды. При расчете учитывается влияние влажности воздуха и скорости ветра на теплоощущения человека.
Tes - Эффективная температура на солнце - температура, которую ощущает человек, с поправкой на солнечный нагрев. Характеристика знойности погоды. Зависит от высоты солнца над горизонтом, облачности и скорости ветра. Ночью, в пасмурную погоду, а также при ветре 12 м/с и более поправка равна нулю.
P - Атмосферное давление - приведенное к уровню моря атмосферное давление.
Po - Атмосферное давление - измеренное на уровне метеостанции атмосферное давление.
Tmin - Минимальная температура - минимум температуры воздуха на высоте 2 м над землей.
Tmax - Максимальная температура - максимум температуры воздуха на высоте 2 м над землей.
R - Количество осадков - Количество выпавших осадков за период времени, мм. При наведении курсора мыши на число - период времени, за который выпало указанное количество осадков.
R24 - Количество осадков - Количество выпавших осадков за 24 часа, мм.
S - Снежный покров - Высота снежного покрова, см. При наведении курсора мыши на число - состояние снежного покрова и степень покрытия местности в баллах.